When you browse on this site, cookies collect data to enhance your experience and personalize the content and advertising you see.
Visit our Privacy Policy to learn more. By continuing to use the site, you agree to this use of cookies and data.
  • In Schweiz
  • Länderverzeichnis
  • Für 7 Tage
  • Wassertemperatur
  • Satellitenkarten
  • Wetterkarte
  • Widgets
  • user-avatar
    Anmelden

    Stündliche Wetter Zaranj

    Heute, 25 April, Donnerstag

    Zeit Temperatur Niederschläge Wind Luftdruck Luftfeuchtigkeit
    00:00 +17°C° 0 mm 13 m/S 719 mmHg 35%
    01:00 +15°C° 0 mm 13 m/S 719 mmHg 36%
    02:00 +15°C° 0 mm 13 m/S 720 mmHg 37%
    03:00 +14°C° 0 mm 14 m/S 720 mmHg 38%
    04:00 +13°C° 0 mm 15 m/S 720 mmHg 40%
    05:00 +13°C° 0 mm 14 m/S 720 mmHg 39%
    06:00 +14°C° 0 mm 13 m/S 721 mmHg 39%
    07:00 +14°C° 0 mm 12 m/S 721 mmHg 38%
    08:00 +15°C° 0 mm 12 m/S 722 mmHg 35%
    09:00 +18°C° 0 mm 12 m/S 722 mmHg 31%
    10:00 +19°C° 0 mm 11 m/S 722 mmHg 27%
    11:00 +21°C° 0 mm 11 m/S 722 mmHg 25%
    12:00 +23°C° 0 mm 10 m/S 722 mmHg 22%
    13:00 +24°C° 0 mm 9 m/S 721 mmHg 19%
    14:00 +24°C° 0 mm 9 m/S 721 mmHg 19%
    15:00 +26°C° 0 mm 8 m/S 720 mmHg 18%
    16:00 +26°C° 0 mm 7 m/S 720 mmHg 17%
    17:00 +24°C° 0 mm 7 m/S 720 mmHg 18%
    18:00 +24°C° 0 mm 7 m/S 720 mmHg 18%
    19:00 +23°C° 0 mm 6 m/S 720 mmHg 19%
    20:00 +22°C° 0 mm 7 m/S 720 mmHg 22%
    21:00 +21°C° 0 mm 8 m/S 720 mmHg 25%
    22:00 +19°C° 0 mm 9 m/S 720 mmHg 27%
    23:00 +19°C° 0 mm 10 m/S 720 mmHg 30%

    Morgen, 26 April, Freitag

    Zeit Temperatur Niederschläge Wind Luftdruck Luftfeuchtigkeit
    00:00 +18°C° 0 mm 10 m/S 720 mmHg 32%
    01:00 +18°C° 0 mm 11 m/S 720 mmHg 34%
    02:00 +17°C° 0 mm 11 m/S 720 mmHg 34%
    03:00 +17°C° 0 mm 11 m/S 720 mmHg 35%
    04:00 +16°C° 0 mm 10 m/S 720 mmHg 35%
    05:00 +16°C° 0 mm 11 m/S 720 mmHg 35%
    06:00 +16°C° 0 mm 11 m/S 720 mmHg 35%
    07:00 +16°C° 0 mm 11 m/S 721 mmHg 34%
    08:00 +18°C° 0 mm 10 m/S 721 mmHg 30%
    09:00 +19°C° 0 mm 10 m/S 721 mmHg 26%
    10:00 +22°C° 0 mm 10 m/S 721 mmHg 21%
    11:00 +23°C° 0 mm 10 m/S 721 mmHg 19%
    12:00 +26°C° 0 mm 9 m/S 721 mmHg 17%
    13:00 +27°C° 0 mm 9 m/S 720 mmHg 15%
    14:00 +27°C° 0 mm 8 m/S 720 mmHg 15%
    15:00 +28°C° 0 mm 7 m/S 719 mmHg 14%
    16:00 +28°C° 0 mm 7 m/S 719 mmHg 14%
    17:00 +27°C° 0 mm 7 m/S 719 mmHg 16%
    18:00 +26°C° 0 mm 7 m/S 719 mmHg 17%
    19:00 +24°C° 0 mm 8 m/S 719 mmHg 19%
    20:00 +23°C° 0 mm 8 m/S 719 mmHg 21%
    21:00 +23°C° 0 mm 9 m/S 720 mmHg 23%
    22:00 +22°C° 0 mm 9 m/S 720 mmHg 25%
    23:00 +21°C° 0 mm 9 m/S 720 mmHg 27%

    übermorgen, 27 April, Samstag

    Zeit Temperatur Niederschläge Wind Luftdruck Luftfeuchtigkeit
    00:00 +21°C° 0 mm 9 m/S 720 mmHg 28%
    01:00 +19°C° 0 mm 10 m/S 720 mmHg 30%
    02:00 +19°C° 0 mm 10 m/S 720 mmHg 31%
    03:00 +18°C° 0 mm 10 m/S 720 mmHg 31%
    04:00 +18°C° 0 mm 10 m/S 720 mmHg 32%
    05:00 +18°C° 0 mm 10 m/S 720 mmHg 31%
    06:00 +18°C° 0 mm 10 m/S 721 mmHg 30%
    07:00 +18°C° 0 mm 10 m/S 721 mmHg 29%
    08:00 +21°C° 0 mm 9 m/S 721 mmHg 26%
    09:00 +22°C° 0 mm 9 m/S 722 mmHg 23%
    10:00 +24°C° 0 mm 9 m/S 722 mmHg 19%
    11:00 +26°C° 0 mm 9 m/S 721 mmHg 18%
    12:00 +28°C° 0 mm 8 m/S 721 mmHg 16%
    13:00 +29°C° 0 mm 8 m/S 720 mmHg 14%
    14:00 +29°C° 0 mm 7 m/S 720 mmHg 14%
    15:00 +29°C° 0 mm 7 m/S 719 mmHg 14%
    16:00 +30°C° 0 mm 6 m/S 719 mmHg 13%
    17:00 +29°C° 0 mm 6 m/S 719 mmHg 15%
    18:00 +28°C° 0 mm 6 m/S 719 mmHg 16%
    19:00 +27°C° 0 mm 6 m/S 719 mmHg 17%
    20:00 +26°C° 0 mm 7 m/S 719 mmHg 19%
    21:00 +26°C° 0 mm 8 m/S 720 mmHg 21%
    22:00 +24°C° 0 mm 8 m/S 720 mmHg 23%
    23:00 +23°C° 0 mm 9 m/S 720 mmHg 24%

    28 April, Sonntag

    Zeit Temperatur Niederschläge Wind Luftdruck Luftfeuchtigkeit
    00:00 +22°C° 0 mm 9 m/S 720 mmHg 26%
    01:00 +22°C° 0 mm 9 m/S 719 mmHg 27%
    02:00 +21°C° 0 mm 9 m/S 719 mmHg 28%
    03:00 +21°C° 0 mm 9 m/S 719 mmHg 28%
    04:00 +20°C° 0 mm 8 m/S 719 mmHg 29%
    05:00 +21°C° 0 mm 8 m/S 719 mmHg 29%
    06:00 +21°C° 0 mm 8 m/S 720 mmHg 29%
    07:00 +21°C° 0 mm 8 m/S 720 mmHg 29%
    08:00 +23°C° 0 mm 8 m/S 720 mmHg 25%
    09:00 +24°C° 0 mm 8 m/S 720 mmHg 22%
    10:00 +27°C° 0 mm 7 m/S 720 mmHg 18%
    11:00 +28°C° 0 mm 6 m/S 720 mmHg 16%
    12:00 +30°C° 0 mm 6 m/S 719 mmHg 15%
    13:00 +32°C° 0 mm 5 m/S 719 mmHg 13%
    14:00 +32°C° 0 mm 5 m/S 718 mmHg 12%
    15:00 +33°C° 0 mm 4 m/S 718 mmHg 12%
    16:00 +33°C° 0 mm 4 m/S 717 mmHg 11%
    17:00 +32°C° 0 mm 4 m/S 717 mmHg 12%
    18:00 +31°C° 0 mm 3 m/S 717 mmHg 13%
    19:00 +30°C° 0 mm 3 m/S 717 mmHg 13%
    20:00 +29°C° 0 mm 3 m/S 717 mmHg 14%
    21:00 +28°C° 0 mm 3 m/S 717 mmHg 15%
    22:00 +28°C° 0 mm 3 m/S 717 mmHg 16%
    23:00 +27°C° 0 mm 4 m/S 717 mmHg 18%

    29 April, Montag

    Zeit Temperatur Niederschläge Wind Luftdruck Luftfeuchtigkeit
    00:00 +26°C° 0 mm 4 m/S 716 mmHg 20%
    01:00 +25°C° 0 mm 4 m/S 716 mmHg 22%
    02:00 +25°C° 0 mm 4 m/S 715 mmHg 23%
    03:00 +23°C° 0 mm 4 m/S 715 mmHg 24%
    04:00 +23°C° 0 mm 4 m/S 715 mmHg 25%
    05:00 +23°C° 0 mm 5 m/S 715 mmHg 25%
    06:00 +23°C° 0 mm 5 m/S 715 mmHg 25%
    07:00 +24°C° 0 mm 6 m/S 715 mmHg 25%
    08:00 +26°C° 0 mm 6 m/S 715 mmHg 23%
    09:00 +27°C° 0 mm 7 m/S 715 mmHg 22%
    10:00 +28°C° 0 mm 7 m/S 716 mmHg 20%
    11:00 +29°C° 0 mm 7 m/S 715 mmHg 18%
    12:00 +32°C° 0 mm 7 m/S 715 mmHg 16%
    13:00 +33°C° 0 mm 8 m/S 714 mmHg 13%
    14:00 +33°C° 0 mm 8 m/S 714 mmHg 14%
    15:00 +33°C° 0 mm 9 m/S 714 mmHg 14%
    16:00 +33°C° 0 mm 10 m/S 714 mmHg 15%
    17:00 +32°C° 0 mm 9 m/S 714 mmHg 17%
    18:00 +31°C° 0 mm 8 m/S 714 mmHg 20%
    19:00 +29°C° 0 mm 7 m/S 714 mmHg 22%
    20:00 +28°C° 0 mm 7 m/S 715 mmHg 23%
    21:00 +27°C° 0 mm 7 m/S 715 mmHg 24%
    22:00 +27°C° 0 mm 7 m/S 716 mmHg 24%
    23:00 +26°C° 0 mm 7 m/S 716 mmHg 25%

    30 April, Dienstag

    Zeit Temperatur Niederschläge Wind Luftdruck Luftfeuchtigkeit
    00:00 +26°C° 0 mm 7 m/S 716 mmHg 26%
    01:00 +24°C° 0 mm 7 m/S 715 mmHg 27%
    02:00 +24°C° 0 mm 7 m/S 715 mmHg 28%
    03:00 +23°C° 0 mm 7 m/S 716 mmHg 30%
    04:00 +23°C° 0 mm 7 m/S 716 mmHg 31%
    05:00 +23°C° 0 mm 8 m/S 716 mmHg 30%
    06:00 +24°C° 0 mm 9 m/S 717 mmHg 29%
    07:00 +24°C° 0 mm 10 m/S 717 mmHg 28%
    08:00 +26°C° 0 mm 10 m/S 717 mmHg 25%
    09:00 +28°C° 0 mm 9 m/S 718 mmHg 21%
    10:00 +29°C° 0 mm 9 m/S 718 mmHg 18%
    11:00 +31°C° 0 mm 9 m/S 717 mmHg 16%
    12:00 +32°C° 0 mm 9 m/S 717 mmHg 14%
    13:00 +34°C° 0 mm 9 m/S 716 mmHg 11%
    14:00 +34°C° 0 mm 9 m/S 716 mmHg 11%
    15:00 +34°C° 0 mm 9 m/S 715 mmHg 10%
    16:00 +34°C° 0 mm 9 m/S 715 mmHg 10%
    17:00 +33°C° 0 mm 8 m/S 715 mmHg 11%
    18:00 +32°C° 0 mm 7 m/S 715 mmHg 12%
    19:00 +32°C° 0 mm 7 m/S 715 mmHg 13%
    20:00 +30°C° 0 mm 7 m/S 715 mmHg 14%
    21:00 +29°C° 0 mm 7 m/S 716 mmHg 16%
    22:00 +28°C° 0 mm 7 m/S 716 mmHg 17%
    23:00 +28°C° 0 mm 6 m/S 716 mmHg 19%
    Mehr zeigen